カタログに戻る

ARIANE 1 DEB

運用中SSO
NORAD 39105·DEBRIS·🇫🇷 France

打ち上げ Feb 22, 1986 から Guiana Space Centre

Loading…

次のパス (今後24時間)

TLE

経年Source: Space-Track

元期: Sep 5, 2026, 21:03 UTC

1 39105U 86019VT  26248.87772150  .00000410  00000-0  22858-3 0  9994
2 39105  98.5500 257.5166 0115447  52.8487 308.3164 14.12591901204403

AllMySatでARIANE 1 DEBをリアルタイム追跡

Download on the App Store